Simultaneous Nadir Overpasses (SNOs) Predictions

Prediction of SNOs between AQUA and METOP-A Satellite Orbit:

Table of predicted SNOs for the next 14.0 days since TLE Epoch: 7/20/2012
Index Date (AQUA) Time (AQUA) AQUA Lat,Lon Date (METOP-A) Time (METOP-A) METOP-A Lat,Lon Distance(km) Time Diff (sec)
1 07/22/2012 03:58:47 -73.82, -65.42 07/22/2012 03:58:06 -73.81, -65.32 3.34 41
2 07/22/2012 04:48:15 73.84, 102.16 07/22/2012 04:48:45 73.84, 102.09 2.25 30
3 07/24/2012 23:33:00 -73.82, 1.02 07/24/2012 23:32:34 -73.82, 1.10 2.33 26
4 07/25/2012 00:22:28 73.85, 168.60 07/25/2012 00:23:13 73.86, 168.51 2.87 45
5 07/27/2012 18:17:41 73.51, -99.51 07/27/2012 18:16:31 73.44,-100.74 39.46 70
6 07/27/2012 19:07:12 -73.79, 67.53 07/27/2012 19:07:06 -73.80, 67.42 3.72 6
7 07/27/2012 19:56:41 73.88,-125.02 07/27/2012 19:57:44 73.89,-125.05 1.47 63
8 07/30/2012 13:51:57 73.77, -33.63 07/30/2012 13:50:58 73.78, -33.59 1.67 59
9 07/30/2012 14:41:24 -73.84, 133.87 07/30/2012 14:41:39 -73.84, 133.87 0.40 15
10 07/30/2012 15:31:01 74.34, -59.65 07/30/2012 15:32:09 74.32, -57.60 61.38 68
11 08/02/2012 09:26:09 73.80, 32.76 08/02/2012 09:25:36 73.79, 32.76 1.18 33
12 08/02/2012 10:15:36 -73.86,-159.73 08/02/2012 10:16:17 -73.85,-159.78 1.92 41




NCC Satellite Simultaneous Nadir Overpasses (SNOs) Prediction Service
